Location: St. Louis
(38.6270°N, 90.1994°W)
Time: 00:18:42
(UTC-06:00)

Courier 1B Rocket - Pass Details

Date: 09 December 2021
Orbit: 920 x 1202 km, 28.2° (Epoch: 16 January)

Event Time Altitude Azimuth Distance (km) Brightness Sun altitude
Rises 18:18:23 0° 207° (SSW) 3,963 8.8 -18.7°
Reaches altitude 10° 18:22:51 10° 184° (S) 2,944 7.7 -19.6°
Maximum altitude 18:26:15 14° 155° (SSE) 2,616 7.1 -20.2°
Enters shadow 18:28:41 12° 134° (SE) 2,736 7.0 -20.7°
Drops below altitude 10° 18:29:32 10° 127° (SE) 2,846 - -20.8°
Sets 18:33:42 0° 103° (ESE) 3,736 - -21.6°
